#timestamp,LO_Frequency,Hit,StdDev 
1563768015.5,286047002.1,P
1563768035.3,286047001.9,P
1563768055.2,286047000.2,N
1563768075.0,286047004.4,Y
1563768075.9,286047004.4,P
1563768095.8,286047001.6,N
1563768115.6,286047000.3,N
1563768135.4,286047000.5,N
1563768155.3,286046996.5,N
1563768175.1,286046999.0,N
1563768195.9,286046998.9,N
1563768215.7,286046998.2,N
1563768235.5,286047002.7,N
1563768255.4,286047001.2,N
1563768275.2,286047000.6,N
1563768295.0,286047002.5,N
1563768296.0,286047002.5,N
1563768315.8,286047002.6,N
1563768335.6,286047002.3,N
1563768355.5,286047000.4,N
1563768375.3,286046998.1,N
1563768395.1,286046998.6,N
1563768415.9,286047000.7,N
1563768435.7,286047000.5,N
1563768455.6,286046999.7,N
1563768475.4,286046999.8,N
1563768495.2,286047001.1,N
1563768515.1,286046999.2,N
1563768516.0,286046999.2,N
1563768535.8,286046999.0,N
1563768555.6,286046998.5,N
1563768575.5,286046998.4,N
1563768595.3,286046998.6,N
1563768615.2,286046998.5,N
1563768635.0,286046998.5,N
1563768635.9,286046998.5,N
1563768655.7,286047000.9,N
1563768675.6,286046999.0,N
1563768695.4,286047001.2,N
1563768715.3,286047000.8,N
1563768735.1,286046998.9,N
1563768755.8,286046999.2,N
1563768775.7,286046999.8,N
1563768795.5,286047002.5,N
1563768815.4,286047004.0,N
1563768835.2,286047004.0,N
1563768855.0,286047001.8,N
1563768855.9,286047001.8,N
1563768875.8,286047002.0,N
1563768895.6,286047002.3,N
1563768915.5,286047000.1,N
1563768935.3,286047002.7,N
1563768955.1,286046998.7,N
1563768975.9,286047000.4,N
1563768995.7,286047000.3,N
1563769015.5,286047002.4,N
1563769035.4,286047003.8,N
1563769055.2,286047004.3,N
1563769075.1,286047003.4,N
1563769076.0,286047003.4,N
1563769095.8,286047005.2,N
1563769115.6,286047005.7,N
1563769135.5,286047003.5,N
1563769155.3,286047004.2,N
1563769175.2,286047002.9,N
1563769195.9,286047003.8,N
1563769215.7,286047003.8,N
1563769235.6,286047005.1,N
1563769255.4,286047002.9,N
1563769275.3,286047005.2,N
1563769295.1,286047005.3,N
1563769296.0,286047005.3,N
1563769315.8,286047005.9,Y
1563769335.7,286047002.1,P
1563769355.5,286047002.3,P
1563769375.4,286047004.4,P
1563769395.2,286047002.6,N
1563769415.0,286047000.7,N
1563769415.9,286047000.7,N
1563769435.8,286047000.3,N
1563769455.6,286047000.4,N
1563769475.5,286047001.0,N
1563769495.3,286047000.8,N
1563769515.2,286047001.2,N
1563769535.9,286047000.8,N
1563769555.7,286046998.1,N
1563769575.6,286046998.6,N
1563769595.4,286046998.8,N
1563769615.2,286046999.1,N
1563769635.1,286046999.4,N
1563769636.0,286046999.4,N
1563769655.8,286046999.5,N
1563769675.7,286046999.3,N
1563769695.5,286046999.4,N
1563769715.3,286046998.3,N
1563769735.2,286046997.1,N
1563769755.0,286046996.8,N
1563769755.9,286046996.8,N
1563769775.8,286046996.7,N
1563769795.6,286046999.6,N
1563769815.4,286046997.4,N
1563769835.3,286046997.2,N
1563769855.1,286046995.3,N
1563769875.9,286046995.3,N
1563769895.7,286046996.0,N
1563769915.5,286046993.7,Y
1563769935.4,286046995.0,P
1563769955.2,286046997.4,N
1563769975.0,286046997.7,N
1563769975.9,286046997.7,N
1563769995.8,286046996.6,N
1563770015.6,286046999.1,N
1563770035.5,286046999.1,N
1563770055.3,286046997.2,N
1563770075.1,286046998.5,N
1563770095.9,286046998.8,N
1563770115.7,286047000.6,N
1563770135.5,286046998.9,N
1563770155.4,286046999.1,N
1563770175.2,286046998.4,N
1563770195.1,286046998.3,N
1563770196.0,286046998.3,N
1563770215.8,286046998.9,N
1563770235.6,286046999.2,N
1563770255.5,286046997.9,N
1563770275.3,286046997.2,N
1563770295.2,286046998.9,N
1563770315.9,286046997.6,N
1563770335.7,286046997.6,N
1563770355.6,286046995.3,Y
1563770375.4,286046997.2,P
1563770395.2,286046999.3,N
1563770415.1,286046996.5,P
1563770416.0,286046996.5,Y
1563770435.8,286047000.9,P
1563770455.7,286047000.6,N
1563770475.5,286046999.0,N
1563770495.3,286047000.7,N
1563770515.2,286046999.4,N
1563770535.0,286046997.2,N
1563770535.9,286046997.2,N
1563770555.8,286046995.8,N
1563770575.6,286046996.2,N
1563770595.4,286046997.3,N
1563770615.3,286046998.0,N
1563770635.1,286046996.3,N
1563770655.8,286046995.2,N
1563770675.7,286046997.9,N
1563770695.5,286046998.8,N
1563770715.4,286046997.9,N
1563770735.2,286046993.4,Y
1563770755.0,286046998.7,P
1563770755.9,286046998.7,P
1563770775.8,286046998.4,P
1563770795.6,286046999.9,N
1563770815.5,286046998.5,N
1563770835.3,286046999.9,N
1563770855.1,286047002.0,N
1563770875.9,286047001.6,N
1563770895.7,286047001.8,N
1563770915.5,286047001.3,N
1563770935.4,286047003.4,N
1563770955.2,286047004.0,N
1563770975.1,286047001.8,N
1563770976.0,286047001.8,N
1563770995.8,286047001.7,N
1563771015.6,286047001.1,N
1563771035.5,286047000.7,N
1563771055.3,286047000.6,N
1563771075.2,286047002.5,N
1563771095.9,286047003.9,N
1563771115.7,286047003.9,N
1563771135.6,286047001.3,N
1563771155.4,286047003.7,N
1563771175.2,286047003.2,N
1563771195.1,286047004.1,N
1563771196.0,286047004.1,N
1563771215.8,286047003.9,N
1563771235.7,286047005.7,N
1563771255.5,286047005.9,N
1563771275.3,286047005.6,N
1563771295.2,286047005.3,N
1563771315.0,286047005.1,N
1563771315.9,286047005.1,N
1563771335.8,286047004.4,N
1563771355.6,286047001.7,N
1563771375.4,286046999.9,N
1563771395.3,286047002.2,N
1563771415.1,286047002.0,N
1563771435.9,286047004.4,N
1563771455.7,286047003.2,N
1563771475.5,286047003.9,N
1563771495.4,286047003.4,N
1563771515.2,286047003.4,N
1563771535.0,286047003.0,N
1563771535.9,286047003.0,N
1563771555.8,286047004.4,N
1563771575.6,286047002.0,N
1563771595.5,286047001.6,N
